Regional Weather Roundup
Issued by NWS Sterling, VA

Home | Current Version | Previous Version | Text Only | Print | Product List | Glossary On
Versions: 1 2 3 4 5 6 7 8 9 10 11 12 13 14 15 16 17 18 19 20 21 22 23 24 25 26 27 28 29 30 31 32 33 34 35 36 37 38 39 40 41 42 43 44 45 46 47 48 49 50
000
ASUS41 KLWX 261610
RWRLWX

REGIONAL WEATHER ROUNDUP
NATIONAL WEATHER SERVICE BALTIMORE MD/WASHINGTON DC
1200 PM EDT TUE JUL 26 2016

Note: "FAIR" indicates few or no clouds below 12,000 feet
with no significant weather and/or obstructions to visibility.
 TC=TEMPERATURE CELSIUS

 * =Non NWS site. Station does not report precipitation (e.g. rain,
    snow, etc.), thunder, or fog.

DCZ001-MDZ009-015-VAZ040>042-051-053>054-261700-
WASHINGTON METRO

CITY           SKY/WX    TMP DP  RH WIND       PRES   REMARKS
WASHINGTON NAT CLOUDY    92  73  53 NW8       29.97S HX 100
DULLES         PTSUNNY   87  71  58 NW5       29.99R HX  93
ANDREWS AFB    CLOUDY    89  73  58 VRB5      29.96S HX  96
FT BELVOIR     FAIR      91  71  52 VRB2      29.97S HX  97
QUANTICO       PTSUNNY   92  73  53 N5        29.97S HX 100
COLLEGE PARK*  FAIR      88  72  58 N3        29.96S HX  94
LEESBURG*      FAIR      88  75  66 NW8G18    30.00S HX  97
MANASSAS*      MOSUNNY   90  73  58 N6        29.98S HX  98
GAITHERSBURG*  MOSUNNY   86  72  62 W6        30.02S HX  92

$$

MDZ006>007-011-014-261700-
BALTIMORE METRO

CITY           SKY/WX    TMP DP  RH WIND       PRES   REMARKS
BWI AIRPORT    CLOUDY    93  66  40 W12       29.95S HX  96
MD SCIENCE CTR   N/A     92  66  42 MISG      29.95S HX  94
MARTIN STATE   PTSUNNY   90  79  70 CALM      29.96S HX 105
ANNAPOLIS      PTSUNNY   89  76  65 E3        29.95S HX 100
FORT MEADE*    CLOUDY    86  77  74 W3        29.98S HX  97

$$

MDZ012-015-019>023-261700-
MARYLAND EASTERN SHORE

CITY           SKY/WX    TMP DP  RH WIND       PRES   REMARKS
OCEAN CITY     MOSUNNY   86  74  67 E8        29.95S HX  94
SALISBURY      MOSUNNY   89  76  65 VRB5      29.95S HX 100
BAY BRIDGE AP* PTSUNNY   84  75  74 N3        29.96S HX  92
CAMBRIDGE*     MOSUNNY   86  73  66 CALM      29.95S HX  93
EASTON*        PTSUNNY   90  79  70 N3        30.00R HX 105

$$

MDZ017>025-261700-
SOUTHERN MARYLAND

CITY           SKY/WX    TMP DP  RH WIND       PRES   REMARKS
PATUXENT RIVER PTSUNNY   90  73  57 N6        29.96S HX  98
ST INIGOES     MOSUNNY   91  78  65 CALM      29.95S HX 106
LEONARDTOWN*   PTSUNNY   88  73  62 N3        29.98  HX  96

$$

MDZ003>005-261700-
NORTH CENTRAL MARYLAND

CITY           SKY/WX    TMP DP  RH WIND       PRES   REMARKS
FREDERICK*     SUNNY     91  68  46 NW8       30.00S HX  95
HAGERSTOWN APT PTSUNNY   87  69  54 W5        30.00R HX  91

$$

MDZ501>502-261700-
WESTERN MARYLAND

CITY           SKY/WX    TMP DP  RH WIND       PRES   REMARKS
OAKLAND*       CLOUDY    72  66  83 W6        30.16R
CUMBERLAND*    CLOUDY    86  68  54 W5        30.06S

$$

VAZ025>031-261700-
SHENANDOAH VALLEY

CITY           SKY/WX    TMP DP  RH WIND       PRES   REMARKS
WINCHESTER*    FAIR      86  72  62 W6        30.01S HX  92
FRONT ROYAL*   FAIR      86  72  62 N5        30.01S HX  92
LURAY*         FAIR      88  70  55 SW3       30.02S HX  92
NEW MARKET*    FAIR     N/A N/A N/A CALM      30.00F
STAUNTON*      FAIR      87  69  55 N5        30.06S HX  90
WAYNESBORO*    FAIR      87  68  52 N3        30.06S HX  90

$$

WVZ021-048>050-054>055-261700-
EASTERN WEST VIRGINIA PANHANDLE

CITY           SKY/WX    TMP DP  RH WIND       PRES   REMARKS
MARTINSBURG    FAIR      88  67  49 W8        29.99F HX  91
PETERSBURG*    CLOUDY    88  71  57 N3        30.03S HX  94

$$

VAZ036>039-050-261700-
CENTRAL FOOTHILLS

CITY           SKY/WX    TMP DP  RH WIND       PRES   REMARKS
CHARLOTTESVILL FAIR      95  71  45 CALM      29.99S HX 102
CULPEPER*      FAIR      90  76  64 NW3       29.99S HX 101
ORANGE*          N/A     90  72  55 CALM      30.01S HX  96
GORDONSVILLE*  PTSUNNY   91  75  58 N3        29.98F HX 101
WARRENTON*     FAIR      93  68  44 N6        29.99S HX  97

$$

VAZ055>057-261700-
NORTH AND CENTRAL PIEDMONT

CITY           SKY/WX    TMP DP  RH WIND       PRES   REMARKS
FREDERICKSBRG*   N/A     92  75  57 NW3       29.96F HX 102
STAFFORD*      FAIR      90  71  53 NW5       30.02S HX  96

$$

NCZ024-NYZ072-PAZ021-071-VAZ022-071-261700-
OTHER REGIONAL OBSERVATIONS

CITY           SKY/WX    TMP DP  RH WIND       PRES   REMARKS
NEW YORK CITY  SUNNY     86  70  58 MISG      29.93F HX  90
PHILADELPHIA   PTSUNNY   89  67  47 NW9       29.94S HX  92
PITTSBURGH     CLOUDY    83  63  50 NW6       30.06R
ROANOKE        FAIR      90  70  51 NW6       30.07S HX  95
RICHMOND       PTSUNNY   91  73  55 N7        29.97S HX  99
RALEIGH        PTSUNNY   90  75  61 SW6       30.01S HX 100

$$

ANZ530>537-261700-
MARINE OBSERVATIONS

STATION/POSITION TIME  TEMP    WIND        PRES
                       AIR SEA DIR/SP/G
                 (UTC) (F)     (DEG/KT/KT) (MB)
THOMAS PT LIGHT  1600   83 83   80/  4/  4 1015.9S
BALT KEY BRIDGE  1548   85     120/  5/  7 1014.1F
COVE POINT       1548   82     360/  7/  9 1015.2S
LEWISETTA        1548   87 85   CALM  /  2 1014.3R
SOLOMONS ISLAND  1548   87 84   30/  6/  8   N/A
PINEY POINT      1548          310/  6/  7   N/A

$$




USA.gov is the U.S. government's official web portal to all federal, state and local government web resources and services.